#timestamp,LO_Frequency,Hit,StdDev 
1549386015.4,286047000.2,N
1549386035.2,286046999.8,N
1549386055.0,286047000.9,N
1549386055.9,286047000.9,N
1549386075.8,286047002.6,N
1549386095.6,286047001.7,N
1549386115.4,286047002.0,N
1549386135.3,286047002.6,N
1549386155.1,286047002.6,N
1549386175.9,286046999.9,N
1549386195.7,286047001.6,N
1549386245.6,286047004.2,E
1549386255.5,286047000.9,N
1549386275.3,286046998.9,P
1549386295.2,286046997.3,N
1549386315.9,286046997.4,N
1549386335.7,286046997.4,N
1549386355.6,286046999.5,N
1549386375.4,286046996.8,N
1549386395.2,286046997.1,N
1549386415.1,286046997.6,N
1549386416.0,286046997.6,N
1549386435.8,286046995.6,Y
1549386455.7,286046998.6,P
1549386475.5,286046999.4,N
1549386495.3,286046998.3,P
1549386515.2,286046999.6,N
1549386535.0,286046999.4,N
1549386535.9,286046999.4,N
1549386555.8,286046999.3,N
1549386575.6,286046999.4,N
1549386595.4,286046998.2,Y
1549386615.3,286046998.3,P
1549386635.1,286046998.7,P
1549386655.8,286046998.3,P
1549386675.7,286046998.3,Y
1549386695.5,286046999.7,P
1549386715.4,286047002.2,P
1549386735.2,286047003.2,N
1549386755.0,286047003.8,N
1549386755.9,286047003.8,N
1549386775.8,286047002.1,N
1549386795.6,286047001.8,N
1549386815.4,286047004.2,N
1549386835.3,286047001.3,N
1549386855.1,286047004.0,N
1549386875.9,286047004.3,N
1549386895.7,286047002.0,N
1549386915.5,286047001.8,N
1549386935.4,286047004.2,N
1549386955.2,286047003.5,N
1549386975.0,286047003.7,N
1549386975.9,286047003.7,N
1549386995.8,286047002.7,N
1549387015.6,286046996.5,N
1549387035.4,286046997.9,N
1549387055.3,286046993.3,Y
1549387075.1,286046993.0,P
1549387095.9,286046990.3,N
1549387115.7,286046991.5,N
1549387135.5,286046991.5,N
1549387155.4,286046990.4,N
1549387175.2,286046992.8,N
1549387195.0,286046990.3,N
1549387195.9,286046990.3,N
1549387215.8,286046991.7,N
1549387235.6,286046994.3,N
1549387255.5,286046994.8,N
1549387275.3,286046994.6,N
1549387295.1,286046994.6,N
1549387315.9,286046991.7,N
1549387335.7,286046994.6,N
1549387355.5,286046994.6,N
1549387375.4,286046994.0,N
1549387395.2,286046994.3,N
1549387415.1,286046996.4,N
1549387416.0,286046996.4,N
1549387435.8,286046995.5,N
1549387455.6,286046997.5,N
1549387475.5,286046997.4,N
1549387495.3,286046997.9,N
1549387515.1,286046997.6,N
1549387535.9,286046997.8,N
1549387555.7,286046997.9,N
1549387575.6,286046999.1,N
1549387595.4,286047001.1,N
1549387615.2,286047001.2,N
1549387635.1,286047000.3,N
1549387636.0,286047000.3,N
1549387655.8,286046998.8,N
1549387675.6,286046999.1,N
1549387695.5,286046999.1,N
1549387715.3,286046996.8,N
1549387735.1,286046997.9,N
1549387755.9,286046997.7,N
1549387775.7,286046997.0,N
1549387795.6,286046996.6,N
1549387815.4,286046996.6,N
1549387835.2,286046996.6,N
1549387855.1,286046996.5,N
1549387856.0,286046996.5,N
1549387875.8,286046999.3,N
1549387895.6,286046999.2,N
1549387915.5,286046998.9,N
1549387935.3,286047001.1,N
1549387955.2,286047000.5,N
1549387975.9,286046998.9,N
1549387995.7,286046996.6,N
1549388015.6,286046997.8,N
1549388035.4,286046997.4,N
1549388055.2,286046996.7,N
1549388075.1,286046997.8,N
1549388076.0,286046997.8,N
1549388095.8,286046996.9,N
1549388115.7,286046999.0,N
1549388135.5,286046997.2,N
1549388155.3,286046997.0,N
1549388175.2,286046999.6,N
1549388195.0,286046998.2,N
1549388195.9,286046998.2,N
1549388215.7,286046998.3,N
1549388235.6,286047001.2,N
1549388255.4,286046999.3,N
1549388275.3,286046998.3,N
1549388295.1,286046998.7,N
1549388296.0,286046998.7,N
1549388315.8,286046999.5,N
1549388335.7,286046996.6,N
1549388355.5,286046999.4,N
1549388375.3,286046997.0,N
1549388395.2,286046998.8,N
1549388415.0,286047000.7,N
1549388415.9,286047000.7,N
1549388435.8,286046998.1,N
1549388455.6,286046998.3,N
1549388475.4,286046999.1,N
1549388495.3,286047000.9,N
1549388515.1,286047000.6,N
1549388535.9,286047001.2,N
1549388555.7,286046998.1,N
1549388575.5,286047001.1,N
1549388595.4,286047001.0,N
1549388615.2,286047000.6,N
1549388635.0,286046998.4,N
1549388635.9,286046998.4,N
1549388655.8,286046998.7,N
1549388675.6,286046998.9,N
1549388695.5,286046999.4,N
1549388715.3,286046998.5,N
1549388735.1,286047000.8,N
1549388755.9,286046998.3,N
1549388775.7,286046998.9,N
1549388795.5,286046998.2,N
1549388815.4,286046998.3,N
1549388835.2,286046998.5,N
1549388855.0,286046998.3,N
1549388856.0,286046998.3,N
1549388875.8,286046998.2,N
1549388895.6,286047000.3,N
1549388915.5,286047000.9,N
1549388935.3,286047000.3,N
1549388955.1,286046998.2,N
1549388975.9,286047000.2,N
1549388995.7,286047002.8,N
1549389015.6,286047000.2,N
1549389035.4,286047000.7,N
1549389055.2,286046998.2,N
1549389075.1,286047000.7,N
1549389076.0,286047000.7,N
1549389095.8,286047002.0,N
1549389115.6,286047003.9,N
1549389135.5,286047003.6,N
1549389155.3,286047003.9,N
1549389175.1,286047001.4,N
1549389195.9,286047001.5,N
1549389215.7,286047004.4,N
1549389235.6,286047001.8,N
1549389255.4,286047003.5,N
1549389275.2,286047003.7,N
1549389295.1,286047002.0,N
1549389296.0,286047002.0,N
1549389315.8,286047004.1,N
1549389335.6,286047004.1,N
1549389355.5,286047001.3,N
1549389375.3,286047001.3,N
1549389395.2,286047001.6,N
1549389415.9,286046999.8,N
1549389435.7,286047000.3,N
1549389455.6,286047002.7,N
1549389475.4,286047002.3,N
1549389495.2,286047002.6,N
1549389515.1,286047002.1,N
1549389516.0,286047002.1,N
1549389535.8,286047001.7,N
1549389555.7,286047001.6,N
1549389575.5,286047001.6,N
1549389595.3,286046999.7,N
